Weather History for Boise, ID

Change the Weather History Date:

Tuesday, June 10, 2014

  Actual Average Record
Temperature  
Mean Temperature 69 °F 66 °F  
Max Temperature 83 °F 79 °F 97 °F (1949)
Min Temperature 55 °F 52 °F 32 °F (1894)
Degree Days  
Heating Degree Days 0 3  
Month to date heating degree days 2 34  
Since 1 June heating degree days 2 34  
Since 1 July heating degree days 5511 5484  
Cooling Degree Days 4 3  
Month to date cooling degree days 40 29  
Year to date cooling degree days 64 73  
Since 1 June cooling degree days 40 29  
Growing Degree Days 18 (Base 50)    
Moisture  
Dew Point 33 °F    
Average Humidity 28    
Maximum Humidity 43    
Minimum Humidity 12    
Precipitation  
Precipitation 0.00 in 0.03 in 1.11 in (1977)
Month to date precipitation 0.00 0.32  
Year to date precipitation 8.10 6.56  
Snow  
Snow 0.00 in 0.00 in T in (2008)
Month to date snowfall 0.0 0.0  
Since 1 July snowfall 14.4 19.2  
Snow Depth 0.00 in    
Sea Level Pressure  
Sea Level Pressure 29.82 in    
Wind  
Wind Speed 11 mph (NW)    
Max Wind Speed 21 mph    
Max Gust Speed 29 mph    
Visibility 10 miles    
Events      
T = Trace of Precipitation, MM = Missing Value Source: NWS Daily Summary

Daily Weather History Graph

Daily Weather History Graph

Search for Another Location

Airport:

Trip Planner

Search our weather history database for the weather conditions in past years. The results will help you decide how hot, cold, wet, or windy it might be!

Date:

Astronomy

Jun. 10, 2014 Rise Set
Actual Time 6:03 AM MDT 9:25 PM MDT
Civil Twilight 5:27 AM MDT 10:01 PM MDT
Nautical Twilight 4:41 AM MDT 10:47 PM MDT
Astronomical Twilight 3:43 AM MDT 11:45 PM MDT
Moon 6:51 PM MDT (6/10) 4:17 AM MDT (6/10)
Length of Visible Light 16h 33m
Length of Day
15h 22m
Waxing Gibbous, 92% of the Moon is Illuminated
Jun 10
Waxing Gibbous
Jun 12
Full
Jun 19
Last Quarter
Jun 27
New
Jul 5
First Quarter

Hourly Weather History & Observations

Time (MDT) Temp. Dew Point Humidity Pressure Visibility Wind Dir Wind Speed Gust Speed Precip Events Conditions
12:53 AM 71.1 °F 39.9 °F 32% 29.75 in 10.0 mi West 11.5 mph - N/A   Clear
1:53 AM 66.0 °F 39.9 °F 38% 29.77 in 10.0 mi West 12.7 mph - N/A   Clear
2:53 AM 63.0 °F 39.0 °F 41% 29.79 in 10.0 mi WNW 4.6 mph - N/A   Clear
3:53 AM 62.1 °F 36.0 °F 38% 29.79 in 10.0 mi WNW 6.9 mph - N/A   Clear
4:53 AM 60.1 °F 34.0 °F 38% 29.81 in 10.0 mi West 3.5 mph - N/A   Clear
5:53 AM 57.0 °F 35.1 °F 44% 29.81 in 10.0 mi Calm Calm - N/A   Clear
6:53 AM 57.0 °F 35.1 °F 44% 29.83 in 10.0 mi NW 5.8 mph - N/A   Clear
7:53 AM 59.0 °F 35.6 °F 42% 29.91 in 10.0 mi West 4.6 mph - N/A   Clear
8:53 AM 62.6 °F 35.6 °F 37% 29.93 in 10.0 mi NW 8.1 mph - N/A   Clear
9:53 AM 68.0 °F 39.0 °F 35% 29.85 in 10.0 mi NNW 13.8 mph - N/A   Clear
10:53 AM 71.1 °F 37.9 °F 30% 29.84 in 10.0 mi NW 15.0 mph - N/A   Clear
11:53 AM 73.0 °F 36.0 °F 26% 29.84 in 10.0 mi WNW 17.3 mph 20.7 mph N/A   Clear
12:53 PM 75.2 °F 33.8 °F 22% 29.92 in 10.0 mi WNW 10.4 mph 19.6 mph N/A   Clear
1:53 PM 77.0 °F 30.0 °F 18% 29.83 in 10.0 mi NNW 11.5 mph 19.6 mph N/A   Clear
2:53 PM 80.6 °F 24.8 °F 13% 29.89 in 10.0 mi WNW 17.3 mph 21.9 mph N/A   Clear
3:53 PM 81.0 °F 24.1 °F 12% 29.81 in 10.0 mi NNW 17.3 mph 23.0 mph N/A   Clear
4:53 PM 82.0 °F 30.0 °F 15% 29.80 in 10.0 mi NNW 11.5 mph 17.3 mph N/A   Clear
5:53 PM 82.0 °F 26.1 °F 13% 29.78 in 10.0 mi North 15.0 mph 20.7 mph N/A   Clear
6:53 PM 82.0 °F 25.0 °F 12% 29.76 in 10.0 mi North 16.1 mph 23.0 mph N/A   Clear
7:53 PM 80.1 °F 26.1 °F 14% 29.76 in 10.0 mi WNW 12.7 mph - N/A   Clear
8:53 PM 77.0 °F 32.0 °F 19% 29.83 in 10.0 mi NW 11.5 mph - N/A   Clear
9:53 PM 73.0 °F 32.0 °F 22% 29.79 in 10.0 mi NNW 13.8 mph 24.2 mph N/A   Clear
10:53 PM 70.0 °F 30.9 °F 24% 29.82 in 10.0 mi NNW 11.5 mph - N/A   Clear
11:53 PM 68.0 °F 30.0 °F 24% 29.83 in 10.0 mi WNW 8.1 mph - N/A   Clear